Regional Weather Roundup
Issued by NWS

Home | Current Version | Previous Version | Graphics & Text | Print | Product List | Glossary On
Versions: 1 2 3 4 5 6 7 8 9 10 11 12 13 14 15 16 17 18 19 20 21 22 23 24 25 26 27 28 29 30 31 32 33 34 35 36 37 38 39 40 41 42 43 44 45 46 47 48 49 50
000
ASUS45 KTFX 311904
RWRMT
MONTANA HOURLY WEATHER ROUNDUP
NATIONAL WEATHER SERVICE GREAT FALLS MT
104 PM MDT THU JUL 31 2014

NOTE: "FAIR" INDICATES FEW OR NO CLOUDS BELOW 12000 FEET WITH NO
SIGNIFICANT WEATHER AND/OR OBSTRUCTIONS TO VISIBILITY.

* THESE STATIONS ARE NOT UNDER NWS QUALITY CONTROL. THEY DO NOT
   REPORT WEATHER SUCH AS PRECIPITATION OR FOG.

MTZ001>007-043-312000-
WEST OF THE DIVIDE
CITY           SKY/WX    TMP DP  RH WIND       PRES   REMARKS
KALISPELL      SUNNY     82  52  35 SE7       30.12F
MISSOULA       PTCLDY    84  46  26 SE5       30.14F
BUTTE          PTCLDY    81  41  24 W6        30.27F
MULLAN PASS    SUNNY     75  30  19 CALM      30.33F
* ESSEX        N/A       83  47  28 NE3G8      N/A
* LINCOLN      N/A       80  47  31 SW4G10     N/A
* LOOKOUT PASS N/A       82  33  17 NE4        N/A
* POLSON       N/A       87  52  30 S3         N/A
* RONAN APT    SUNNY     82  54  38 N/A        N/A
* SEELEY LAKE  N/A       86  45  24 SW3        N/A
* THOMP F APT  SUNNY     77  44  31 SW7G13     N/A
$$

MTZ008-052>055-312000-
SOUTHWEST MONTANA
CITY           SKY/WX    TMP DP  RH WIND       PRES   REMARKS
BOZEMAN        SUNNY     82  45  27 CALM      30.21F
DILLON         PTCLDY    81  46  29 NW5       30.25F
W YELLOWSTONE  PTCLDY    73  34  24 CALM      30.34F
* THREE FORKS  PTCLDY    82  52  35 N/A        N/A
* BOULDER HILL N/A       77  42  29 NE10G15    N/A
* MONIDA PASS  N/A       74  40  29 NE7G14     N/A
* RAYNOLDS PAS N/A       75  41  30 SE4        N/A
* WHITEHALL    N/A       84  51  32 SW6G11     N/A
* WISE RIVER   N/A       80  46  30 SE4G9      N/A
$$

MTZ009>010-012-014-046-048-049-054-312000-
EAST SLOPES AND CENTRAL MONTANA
CITY           SKY/WX    TMP DP  RH WIND       PRES   REMARKS
CUT BANK       SUNNY     90  43  19 N8        30.12F
GREAT FALLS    SUNNY     91  39  16 N8        30.11F
HELENA         PTCLDY    88  45  22 CALM      30.15F
MALMSTROM AFB  SUNNY     88  41  19 W10       30.12F
* CONRAD       SUNNY     90  45  21 NW7        N/A
* DEARBORN     N/A       90  44  20 NE1G9      N/A
* EAST GLACIER N/A       68  44  42 S14G27     N/A
* MONARCH      N/A       80  39  23 NW6G17     N/A
* PENDROY      N/A       87  50  28 N4G11      N/A
* ROGERS PASS  N/A       81  37  21 NW4        N/A
* SAINT MARY   N/A       71  34  26 SW4        N/A
* SWEET GRASS  N/A       85  46  26 N11G20     N/A
$$

MTZ011-013-016-021-035-040-045-047-050-051-312000-
NORTH CENTRAL MONTANA
CITY           SKY/WX    TMP DP  RH WIND       PRES   REMARKS
HAVRE          SUNNY     93  39  15 W6        30.03F
LEWISTOWN      PTCLDY    88  41  19 VRB5      30.15F
* CHESTER      N/A       89  37  16 NW10G17    N/A
* DENTON       N/A       89  50  26 N13        N/A
* GEYSER       N/A       88  46  23 NW12G17    N/A
* JUDITH GAP   N/A       83  48  30 N8G16      N/A
* LOMA         N/A       91  40  17 SW8G16     N/A
$$

MTZ017>020-022>027-061-062-312000-
NORTHEAST MONTANA
CITY           SKY/WX    TMP DP  RH WIND       PRES   REMARKS
GLASGOW        SUNNY     93  43  18 S8        29.99F
GLENDIVE       PTCLDY    90  46  22 S15G22    30.07F
JORDAN         SUNNY     93  30  10 N/A       30.02F
SIDNEY         SUNNY     90  54  29 S10       30.05F
WOLF POINT     SUNNY     93  46  20 SW12      30.01F
* BEAVER HILL  N/A       86  48  27 S18G24     N/A
* CIRCLE       N/A       89  51  27 S11G19     N/A
* LINDSAY DVD  N/A       88  39  18 S11G21     N/A
* NAVAJO       N/A       84  57  40 S9         N/A   HI  83
$$

MTZ028>042-056>058-312000-
SOUTHCENTRAL AND SOUTHEAST MONTANA
CITY           SKY/WX    TMP DP  RH WIND       PRES   REMARKS
BAKER          PTCLDY    86  45  24 S8        30.13S
BILLINGS       PTCLDY    88  43  21 S12       30.12F
LIVINGSTON     PTCLDY    90  39  17 W9        30.18F
MILES CITY     PTCLDY    93  37  14 S8G17     30.06F
* LAUREL APT   SUNNY     88  43  21 N/A        N/A
* ROUNDUP APT  PTCLDY    90  36  15 E5         N/A
* ALZADA       N/A       83  46  27 S4         N/A
* HYSHAM       N/A       89  47  23 SW4G12     N/A
* LAME DEER    N/A       84  32  15 S9G18      N/A
* REED POINT   N/A       90  48  24 W8         N/A
* ROSCOE HILL  N/A       83  39  21 N8G14      N/A
$$

REGIONAL REPORTS...DAKOTAS
CITY           SKY/WX    TMP DP  RH WIND       PRES   REMARKS
WILLISTON      PTSUNNY   79  61  54 S6        30.07F
DICKINSON      PTCLDY    82  54  38 VRB5      30.08F
CROSBY         SUNNY     79  59  50 SE12      30.07F
TIOGA          SUNNY     79  59  50 S8        30.12S
WATFORD CITY   SUNNY     84  54  36 NE5       30.06S
BISMARCK       SUNNY     84  54  36 VRB5      30.08S
GRAND FORKS    PTCLDY   N/A N/A N/A N/A       30.01F
FARGO          SUNNY     82  57  43 N9        30.02S HI  82
BUFFALO SD     SUNNY     86  46  25 VRB3      30.07F
RAPID CITY     SUNNY     81  50  34 VRB3      30.16F
$$

REGIONAL REPORTS...WYOMING/IDAHO/WASHINGTON
CITY           SKY/WX    TMP DP  RH WIND       PRES   REMARKS
GILLETTE       SUNNY     82  39  22 VRB3      30.20F
SHERIDAN       PTCLDY    90  39  17 S9        30.15F
CODY           PTCLDY    81  39  22 NE6       30.22F
YELLOWSTONE LA PTCLDY    59  52  78 N7        30.47R
SALMON         PTCLDY    79  46  31 SW3       30.18F
MULLAN PASS    SUNNY     75  30  19 CALM      30.33S
SAND POINT     SUNNY     84  52  33 SE3       30.07S
SPOKANE        SUNNY     93  41  16 S6        30.07S

$$



USA.gov is the U.S. government's official web portal to all federal, state and local government web resources and services.